TimeCDT,TemperatureF,Dew PointF,Humidity,Sea Level PressureIn,VisibilityMPH,Wind Direction,Wind SpeedMPH,Gust SpeedMPH,PrecipitationIn,Events,Conditions,WindDirDegrees,DateUTC
12:15 AM,42.8,39.2,87,29.80,10.0,WNW,3.5,-,N/A,,Mostly Cloudy,290,2012-10-20 05:15:00
12:35 AM,42.8,39.2,87,29.80,10.0,Calm,Calm,-,N/A,,Partly Cloudy,0,2012-10-20 05:35:00
12:55 AM,41.0,39.2,93,29.80,10.0,West,3.5,-,N/A,,Clear,260,2012-10-20 05:55:00
1:15 AM,41.0,39.2,93,29.81,10.0,Calm,Calm,-,N/A,,Clear,0,2012-10-20 06:15:00
1:35 AM,42.8,39.2,87,29.81,10.0,Calm,Calm,-,N/A,,Clear,0,2012-10-20 06:35:00
1:55 AM,41.0,39.2,93,29.80,10.0,Calm,Calm,-,N/A,,Clear,0,2012-10-20 06:55:00
2:15 AM,41.0,39.2,93,29.80,10.0,WSW,3.5,-,N/A,,Clear,240,2012-10-20 07:15:00
2:35 AM,41.0,39.2,93,29.80,10.0,Calm,Calm,-,N/A,,Clear,0,2012-10-20 07:35:00
2:55 AM,41.0,39.2,93,29.80,10.0,Calm,Calm,-,N/A,,Clear,0,2012-10-20 07:55:00
3:15 AM,41.0,39.2,93,29.80,10.0,Calm,Calm,-,N/A,,Clear,0,2012-10-20 08:15:00
3:35 AM,39.2,37.4,93,29.80,10.0,Calm,Calm,-,N/A,,Clear,0,2012-10-20 08:35:00
3:55 AM,39.2,39.2,100,29.80,10.0,SW,5.8,-,N/A,,Clear,220,2012-10-20 08:55:00
4:15 AM,41.0,39.2,93,29.80,10.0,SSW,5.8,-,N/A,,Clear,210,2012-10-20 09:15:00
4:35 AM,39.2,39.2,100,29.81,9.0,SW,8.1,-,N/A,,Clear,230,2012-10-20 09:35:00
4:55 AM,39.2,39.2,100,29.80,7.0,SW,3.5,-,N/A,,Clear,220,2012-10-20 09:55:00
5:15 AM,39.2,37.4,93,29.80,5.0,SW,3.5,-,N/A,,Clear,220,2012-10-20 10:15:00
5:35 AM,37.4,37.4,100,29.80,1.0,Calm,Calm,-,N/A,,Clear,0,2012-10-20 10:35:00
5:55 AM,37.4,37.4,100,29.81,1.0,Calm,Calm,-,N/A,,Clear,0,2012-10-20 10:55:00
6:15 AM,37.4,35.6,93,29.82,0.2,Calm,Calm,-,N/A,Fog,Fog,0,2012-10-20 11:15:00
6:35 AM,37.4,37.4,100,29.82,0.2,South,3.5,-,N/A,Fog,Fog,170,2012-10-20 11:35:00
6:55 AM,37.4,37.4,100,29.82,0.5,Calm,Calm,-,N/A,Fog,Fog,0,2012-10-20 11:55:00
7:15 AM,37.4,35.6,93,29.81,0.2,South,4.6,-,N/A,Fog,Fog,170,2012-10-20 12:15:00
7:35 AM,35.6,35.6,100,29.81,0.2,Calm,Calm,-,N/A,Fog,Fog,0,2012-10-20 12:35:00
7:55 AM,35.6,33.8,93,29.81,0.2,SE,3.5,-,N/A,Fog,Fog,130,2012-10-20 12:55:00
8:15 AM,37.4,35.6,93,29.82,0.2,ESE,4.6,-,N/A,Fog,Fog,120,2012-10-20 13:15:00
8:35 AM,37.4,37.4,100,29.82,2.5,SE,4.6,-,N/A,,Clear,140,2012-10-20 13:35:00
8:55 AM,39.2,39.2,100,29.82,4.0,SE,5.8,-,N/A,,Mostly Cloudy,140,2012-10-20 13:55:00
9:15 AM,39.2,39.2,100,29.82,5.0,SE,5.8,-,N/A,,Partly Cloudy,130,2012-10-20 14:15:00
9:35 AM,41.0,41.0,100,29.82,7.0,SSE,6.9,-,N/A,,Clear,150,2012-10-20 14:35:00
9:55 AM,44.6,42.8,93,29.82,9.0,SSE,6.9,-,N/A,,Clear,150,2012-10-20 14:55:00
10:15 AM,46.4,41.0,81,29.82,9.0,South,9.2,-,N/A,,Clear,170,2012-10-20 15:15:00
10:35 AM,48.2,42.8,82,29.83,10.0,SSE,9.2,-,N/A,,Clear,150,2012-10-20 15:35:00
10:55 AM,48.2,41.0,76,29.82,10.0,SSE,8.1,-,N/A,,Clear,160,2012-10-20 15:55:00
11:15 AM,50.0,42.8,76,29.82,10.0,SSE,8.1,-,N/A,,Clear,160,2012-10-20 16:15:00
11:35 AM,51.8,42.8,71,29.82,10.0,SSE,8.1,-,N/A,,Clear,160,2012-10-20 16:35:00
11:55 AM,53.6,41.0,62,29.81,10.0,SE,12.7,-,N/A,,Clear,130,2012-10-20 16:55:00
12:15 PM,55.4,42.8,63,29.81,10.0,SSE,9.2,-,N/A,,Clear,160,2012-10-20 17:15:00
12:35 PM,55.4,42.8,63,29.80,10.0,SSE,10.4,-,N/A,,Clear,160,2012-10-20 17:35:00
12:55 PM,57.2,42.8,59,29.80,10.0,SSE,11.5,-,N/A,,Clear,160,2012-10-20 17:55:00
1:15 PM,57.2,42.8,59,29.79,10.0,SSE,10.4,-,N/A,,Clear,160,2012-10-20 18:15:00
1:35 PM,59.0,41.0,51,29.78,10.0,SSE,11.5,-,N/A,,Clear,160,2012-10-20 18:35:00
1:55 PM,59.0,41.0,51,29.77,10.0,SSE,13.8,-,N/A,,Clear,150,2012-10-20 18:55:00
2:15 PM,60.8,42.8,52,29.75,10.0,SSE,15.0,-,N/A,,Clear,150,2012-10-20 19:15:00
2:35 PM,62.6,41.0,45,29.73,10.0,South,13.8,-,N/A,,Clear,170,2012-10-20 19:35:00
2:55 PM,62.6,41.0,45,29.73,10.0,SSE,12.7,19.6,N/A,,Clear,160,2012-10-20 19:55:00
3:15 PM,62.6,41.0,45,29.73,10.0,SE,15.0,-,N/A,,Clear,140,2012-10-20 20:15:00
3:35 PM,62.6,41.0,45,29.71,10.0,SE,12.7,19.6,N/A,,Clear,140,2012-10-20 20:35:00
3:55 PM,64.4,41.0,42,29.70,10.0,SSE,12.7,19.6,N/A,,Clear,150,2012-10-20 20:55:00
4:15 PM,64.4,41.0,42,29.69,10.0,SSE,17.3,-,N/A,,Clear,160,2012-10-20 21:15:00
4:35 PM,64.4,41.0,42,29.69,10.0,SSE,13.8,-,N/A,,Clear,150,2012-10-20 21:35:00
4:55 PM,64.4,41.0,42,29.70,10.0,SSE,12.7,-,N/A,,Clear,150,2012-10-20 21:55:00
5:15 PM,64.4,41.0,42,29.70,10.0,SSE,12.7,19.6,N/A,,Clear,150,2012-10-20 22:15:00
5:35 PM,62.6,41.0,45,29.71,10.0,SSE,11.5,-,N/A,,Clear,150,2012-10-20 22:35:00
5:55 PM,62.6,41.0,45,29.72,10.0,SE,9.2,-,N/A,,Clear,140,2012-10-20 22:55:00
6:15 PM,60.8,41.0,48,29.72,10.0,SE,10.4,-,N/A,,Clear,140,2012-10-20 23:15:00
6:35 PM,57.2,41.0,55,29.73,10.0,SE,8.1,-,N/A,,Clear,130,2012-10-20 23:35:00
6:55 PM,57.2,41.0,55,29.73,10.0,SE,8.1,-,N/A,,Clear,130,2012-10-20 23:55:00
7:15 PM,55.4,41.0,58,29.73,10.0,SE,6.9,-,N/A,,Clear,130,2012-10-21 00:15:00
7:35 PM,53.6,41.0,62,29.73,10.0,SE,6.9,-,N/A,,Clear,130,2012-10-21 00:35:00
7:55 PM,55.4,41.0,58,29.73,10.0,ESE,9.2,-,N/A,,Clear,120,2012-10-21 00:55:00
8:15 PM,53.6,41.0,62,29.73,10.0,ESE,8.1,15.0,N/A,,Clear,120,2012-10-21 01:15:00
8:35 PM,53.6,41.0,62,29.73,10.0,ESE,9.2,-,N/A,,Clear,120,2012-10-21 01:35:00
8:55 PM,53.6,41.0,62,29.74,10.0,ESE,10.4,-,N/A,,Partly Cloudy,120,2012-10-21 01:55:00
9:15 PM,53.6,41.0,62,29.75,10.0,SE,9.2,-,N/A,,Partly Cloudy,130,2012-10-21 02:15:00
9:35 PM,51.8,41.0,67,29.75,10.0,SE,10.4,-,N/A,,Partly Cloudy,130,2012-10-21 02:35:00
9:55 PM,51.8,41.0,67,29.74,10.0,SE,11.5,-,N/A,,Partly Cloudy,140,2012-10-21 02:55:00
10:15 PM,51.8,41.0,67,29.74,10.0,SE,12.7,-,N/A,,Partly Cloudy,130,2012-10-21 03:15:00
10:35 PM,51.8,41.0,67,29.74,10.0,SE,13.8,-,N/A,,Partly Cloudy,130,2012-10-21 03:35:00
10:55 PM,51.8,41.0,67,29.74,10.0,SE,12.7,21.9,N/A,,Partly Cloudy,130,2012-10-21 03:55:00
11:15 PM,51.8,41.0,67,29.74,10.0,SE,11.5,-,N/A,,Scattered Clouds,130,2012-10-21 04:15:00
11:35 PM,50.0,41.0,71,29.75,10.0,SE,9.2,-,N/A,,Mostly Cloudy,130,2012-10-21 04:35:00
11:55 PM,50.0,41.0,71,29.74,10.0,SE,11.5,-,N/A,,Mostly Cloudy,130,2012-10-21 04:55:00